Precipitable_Water
0.19 0.20 0.20 0.20 0.20 0.20 0.20 0.20 0.19 0.19 0.19 0.18 0.17 0.17 0.16 0.17 0.18 0.19 0.19 0.19 0.19 0.19 0.19 0.19 0.25 0.33 0.39 0.47 0.52 0.51 0.52 0.57 0.65 0.71 0.71 0.67 0.72 0.77 0.79 0.78 0.78 0.84 0.87 0.88 0.90 0.92 0.89 0.86 0.85 0.89 0.88 0.86 0.83 0.80 0.79 0.76 0.74 0.71 0.68 0.63 0.55 0.51 0.48 0.47 0.45 0.42 0.38 0.37 0.38 0.37 0.38 0.41 0.42 0.43 0.45 0.47 0.51 0.57 0.62 0.66 0.70 0.71 0.72 0.74 0.77
0.19 0.19 0.20 0.21 0.21 0.21 0.21 0.21 0.20 0.19 0.19 0.19 0.18 0.18 0.17 0.17 0.16 0.16 0.17 0.18 0.18 0.19 0.18 0.18 0.19 0.23 0.31 0.36 0.45 0.50 0.49 0.47 0.54 0.63 0.69 0.70 0.69 0.69 0.71 0.72 0.74 0.75 0.79 0.82 0.84 0.86 0.86 0.84 0.81 0.82 0.86 0.85 0.82 0.82 0.81 0.80 0.78 0.75 0.71 0.66 0.61 0.54 0.51 0.51 0.49 0.45 0.39 0.36 0.35 0.35 0.36 0.38 0.39 0.39 0.41 0.43 0.46 0.51 0.56 0.60 0.65 0.68 0.70 0.71 0.74
0.20 0.21 0.22 0.22 0.22 0.22 0.22 0.22 0.21 0.21 0.21 0.20 0.20 0.19 0.19 0.18 0.18 0.17 0.17 0.16 0.17 0.18 0.18 0.18 0.18 0.19 0.22 0.28 0.33 0.42 0.49 0.48 0.45 0.51 0.58 0.62 0.62 0.65 0.69 0.71 0.73 0.74 0.74 0.74 0.74 0.76 0.80 0.81 0.80 0.76 0.79 0.82 0.80 0.79 0.77 0.77 0.77 0.75 0.73 0.68 0.63 0.59 0.54 0.54 0.51 0.48 0.42 0.42 0.39 0.35 0.32 0.31 0.34 0.35 0.37 0.38 0.41 0.44 0.49 0.53 0.58 0.62 0.65 0.69 0.71
0.20 0.22 0.22 0.23 0.24 0.23 0.23 0.23 0.23 0.22 0.22 0.21 0.21 0.21 0.20 0.19 0.19 0.19 0.18 0.18 0.17 0.17 0.18 0.18 0.18 0.18 0.19 0.21 0.26 0.31 0.38 0.45 0.44 0.40 0.46 0.56 0.59 0.59 0.64 0.68 0.71 0.72 0.73 0.73 0.71 0.71 0.71 0.74 0.76 0.74 0.75 0.78 0.79 0.79 0.78 0.76 0.77 0.75 0.74 0.71 0.67 0.61 0.58 0.55 0.54 0.51 0.47 0.43 0.37 0.36 0.34 0.32 0.29 0.30 0.32 0.35 0.38 0.39 0.41 0.45 0.51 0.55 0.59 0.63 0.66
0.22 0.23 0.23 0.24 0.24 0.24 0.24 0.24 0.24 0.23 0.23 0.23 0.23 0.22 0.21 0.20 0.20 0.20 0.20 0.19 0.19 0.18 0.17 0.17 0.17 0.17 0.17 0.18 0.19 0.25 0.29 0.34 0.41 0.41 0.37 0.41 0.53 0.58 0.55 0.60 0.65 0.68 0.69 0.69 0.69 0.69 0.68 0.68 0.69 0.71 0.69 0.73 0.76 0.77 0.76 0.76 0.77 0.76 0.74 0.71 0.68 0.65 0.63 0.61 0.59 0.56 0.52 0.50 0.44 0.39 0.35 0.32 0.30 0.31 0.33 0.33 0.35 0.35 0.36 0.39 0.42 0.47 0.52 0.56 0.59
0.23 0.22 0.23 0.24 0.24 0.24 0.24 0.24 0.23 0.23 0.23 0.24 0.24 0.24 0.23 0.22 0.22 0.21 0.21 0.21 0.20 0.20 0.19 0.18 0.17 0.17 0.17 0.17 0.17 0.17 0.23 0.26 0.31 0.35 0.37 0.34 0.38 0.47 0.53 0.54 0.54 0.60 0.65 0.64 0.65 0.66 0.66 0.65 0.64 0.66 0.67 0.68 0.71 0.73 0.75 0.75 0.74 0.74 0.75 0.73 0.69 0.67 0.63 0.61 0.58 0.58 0.56 0.53 0.51 0.46 0.41 0.36 0.34 0.34 0.32 0.28 0.34 0.34 0.34 0.36 0.37 0.39 0.44 0.49 0.53
0.22 0.22 0.22 0.22 0.22 0.22 0.22 0.21 0.21 0.21 0.22 0.23 0.24 0.24 0.24 0.24 0.23 0.22 0.22 0.22 0.22 0.21 0.20 0.20 0.18 0.17 0.17 0.16 0.17 0.16 0.16 0.21 0.23 0.28 0.32 0.33 0.31 0.35 0.42 0.47 0.50 0.50 0.55 0.60 0.60 0.61 0.62 0.62 0.62 0.62 0.63 0.64 0.66 0.68 0.69 0.71 0.72 0.72 0.72 0.71 0.71 0.68 0.63 0.59 0.58 0.56 0.55 0.53 0.51 0.49 0.46 0.42 0.38 0.33 0.30 0.31 0.29 0.31 0.32 0.32 0.33 0.35 0.37 0.39 0.44
0.19 0.19 0.19 0.20 0.20 0.20 0.19 0.20 0.19 0.19 0.20 0.21 0.21 0.22 0.22 0.22 0.22 0.22 0.22 0.23 0.24 0.23 0.22 0.21 0.20 0.19 0.18 0.17 0.17 0.16 0.16 0.16 0.20 0.22 0.26 0.29 0.30 0.30 0.34 0.38 0.43 0.48 0.49 0.52 0.55 0.56 0.57 0.58 0.59 0.59 0.60 0.61 0.62 0.62 0.64 0.68 0.71 0.71 0.71 0.70 0.69 0.67 0.65 0.62 0.61 0.59 0.55 0.54 0.54 0.51 0.49 0.46 0.42 0.39 0.36 0.32 0.30 0.28 0.29 0.31 0.31 0.32 0.33 0.33 0.35
0.19 0.18 0.18 0.18 0.18 0.18 0.18 0.18 0.18 0.19 0.19 0.18 0.18 0.19 0.19 0.20 0.20 0.20 0.20 0.22 0.23 0.24 0.23 0.22 0.21 0.20 0.19 0.19 0.17 0.17 0.17 0.17 0.17 0.20 0.21 0.23 0.25 0.27 0.29 0.32 0.34 0.39 0.44 0.46 0.48 0.51 0.53 0.54 0.54 0.55 0.56 0.58 0.58 0.59 0.62 0.63 0.64 0.66 0.68 0.67 0.66 0.65 0.64 0.65 0.63 0.61 0.60 0.58 0.57 0.55 0.52 0.48 0.45 0.43 0.41 0.37 0.32 0.29 0.27 0.27 0.26 0.28 0.29 0.29 0.29
0.18 0.18 0.18 0.18 0.18 0.18 0.18 0.18 0.17 0.18 0.18 0.18 0.18 0.17 0.17 0.18 0.18 0.18 0.18 0.20 0.22 0.22 0.22 0.22 0.22 0.22 0.20 0.20 0.19 0.18 0.17 0.17 0.17 0.17 0.19 0.20 0.22 0.24 0.26 0.26 0.29 0.31 0.35 0.39 0.42 0.43 0.47 0.49 0.49 0.51 0.52 0.54 0.56 0.55 0.57 0.59 0.60 0.62 0.64 0.65 0.66 0.64 0.63 0.64 0.64 0.63 0.62 0.61 0.59 0.57 0.53 0.49 0.45 0.42 0.40 0.38 0.35 0.32 0.28 0.27 0.26 0.24 0.23 0.25 0.28
0.16 0.16 0.17 0.18 0.18 0.18 0.17 0.16 0.16 0.17 0.17 0.17 0.16 0.16 0.16 0.16 0.16 0.16 0.17 0.19 0.20 0.20 0.20 0.20 0.20 0.21 0.21 0.21 0.20 0.19 0.18 0.18 0.17 0.16 0.17 0.18 0.19 0.21 0.23 0.24 0.26 0.27 0.29 0.32 0.34 0.38 0.42 0.44 0.47 0.47 0.48 0.51 0.52 0.54 0.53 0.54 0.55 0.58 0.61 0.63 0.64 0.63 0.61 0.61 0.64 0.65 0.63 0.60 0.57 0.55 0.53 0.51 0.48 0.45 0.43 0.41 0.37 0.33 0.30 0.28 0.27 0.26 0.24 0.22 0.24
0.16 0.16 0.16 0.16 0.16 0.17 0.16 0.15 0.15 0.15 0.15 0.15 0.15 0.15 0.15 0.15 0.15 0.15 0.16 0.17 0.18 0.18 0.18 0.18 0.19 0.19 0.20 0.20 0.20 0.20 0.19 0.18 0.17 0.17 0.17 0.17 0.17 0.19 0.21 0.22 0.24 0.25 0.26 0.27 0.28 0.31 0.35 0.38 0.41 0.43 0.44 0.45 0.47 0.50 0.51 0.52 0.52 0.53 0.55 0.58 0.60 0.62 0.63 0.61 0.61 0.62 0.62 0.61 0.58 0.56 0.54 0.54 0.53 0.51 0.49 0.47 0.43 0.38 0.34 0.31 0.29 0.29 0.27 0.25 0.24
0.16 0.15 0.15 0.14 0.14 0.14 0.14 0.13 0.12 0.12 0.12 0.13 0.13 0.14 0.14 0.13 0.13 0.14 0.14 0.16 0.16 0.16 0.16 0.16 0.17 0.18 0.18 0.18 0.18 0.19 0.19 0.18 0.18 0.17 0.17 0.17 0.17 0.17 0.19 0.20 0.21 0.22 0.23 0.24 0.26 0.26 0.28 0.31 0.35 0.37 0.39 0.41 0.42 0.44 0.46 0.47 0.49 0.50 0.51 0.52 0.55 0.57 0.59 0.59 0.59 0.60 0.62 0.60 0.60 0.60 0.58 0.56 0.55 0.55 0.51 0.48 0.47 0.43 0.39 0.34 0.33 0.32 0.28 0.27 0.27
0.15 0.15 0.14 0.13 0.12 0.12 0.12 0.11 0.10 0.11 0.11 0.11 0.12 0.12 0.12 0.11 0.12 0.13 0.14 0.15 0.15 0.15 0.15 0.15 0.15 0.16 0.16 0.16 0.16 0.17 0.17 0.18 0.18 0.17 0.18 0.18 0.18 0.18 0.18 0.18 0.19 0.20 0.21 0.22 0.24 0.25 0.24 0.26 0.29 0.32 0.34 0.36 0.38 0.40 0.42 0.44 0.46 0.47 0.48 0.49 0.50 0.52 0.55 0.57 0.58 0.59 0.60 0.61 0.61 0.60 0.59 0.58 0.58 0.58 0.56 0.52 0.48 0.45 0.41 0.38 0.35 0.34 0.32 0.30 0.29
0.14 0.14 0.14 0.12 0.11 0.11 0.11 0.11 0.11 0.11 0.11 0.11 0.11 0.11 0.11 0.11 0.11 0.12 0.13 0.13 0.14 0.14 0.14 0.14 0.14 0.14 0.15 0.15 0.15 0.15 0.16 0.17 0.17 0.17 0.17 0.17 0.18 0.18 0.18 0.18 0.18 0.19 0.20 0.21 0.22 0.23 0.24 0.24 0.24 0.26 0.29 0.31 0.33 0.35 0.37 0.38 0.40 0.42 0.44 0.46 0.48 0.50 0.52 0.53 0.55 0.56 0.56 0.58 0.60 0.60 0.60 0.60 0.59 0.59 0.57 0.56 0.55 0.51 0.46 0.43 0.40 0.35 0.34 0.33 0.30
0.13 0.13 0.12 0.12 0.12 0.12 0.11 0.11 0.11 0.11 0.11 0.11 0.11 0.11 0.11 0.11 0.12 0.12 0.12 0.13 0.13 0.13 0.14 0.14 0.14 0.14 0.14 0.14 0.14 0.14 0.15 0.15 0.16 0.16 0.17 0.17 0.17 0.17 0.17 0.18 0.18 0.19 0.19 0.20 0.21 0.21 0.22 0.23 0.23 0.23 0.25 0.27 0.29 0.30 0.32 0.33 0.35 0.37 0.39 0.41 0.43 0.47 0.48 0.50 0.52 0.54 0.54 0.56 0.57 0.60 0.59 0.59 0.61 0.60 0.59 0.58 0.56 0.55 0.52 0.47 0.43 0.39 0.35 0.32 0.33
0.11 0.11 0.11 0.11 0.12 0.11 0.11 0.11 0.11 0.11 0.11 0.10 0.10 0.10 0.11 0.11 0.11 0.11 0.12 0.12 0.12 0.12 0.12 0.13 0.13 0.13 0.13 0.13 0.13 0.13 0.13 0.14 0.14 0.15 0.15 0.16 0.16 0.16 0.17 0.17 0.18 0.18 0.19 0.20 0.20 0.20 0.21 0.21 0.21 0.22 0.22 0.23 0.25 0.26 0.28 0.29 0.30 0.32 0.34 0.36 0.38 0.41 0.44 0.46 0.49 0.50 0.53 0.54 0.54 0.56 0.58 0.59 0.60 0.61 0.60 0.59 0.57 0.56 0.54 0.52 0.48 0.43 0.39 0.35 0.32
0.10 0.11 0.11 0.11 0.11 0.11 0.11 0.11 0.11 0.11 0.10 0.10 0.10 0.11 0.11 0.11 0.11 0.11 0.11 0.11 0.11 0.11 0.11 0.12 0.12 0.13 0.13 0.13 0.13 0.14 0.14 0.14 0.14 0.14 0.15 0.15 0.15 0.15 0.16 0.16 0.16 0.17 0.18 0.18 0.19 0.19 0.20 0.21 0.21 0.20 0.21 0.21 0.22 0.23 0.24 0.26 0.27 0.28 0.29 0.31 0.33 0.36 0.38 0.41 0.44 0.47 0.49 0.51 0.52 0.53 0.55 0.57 0.59 0.60 0.60 0.60 0.58 0.56 0.54 0.53 0.51 0.48 0.43 0.38 0.35
0.10 0.10 0.10 0.10 0.10 0.10 0.10 0.10 0.10 0.10 0.10 0.11 0.11 0.11 0.11 0.11 0.11 0.11 0.11 0.11 0.11 0.11 0.11 0.12 0.12 0.12 0.12 0.13 0.14 0.14 0.15 0.15 0.15 0.15 0.15 0.15 0.15 0.15 0.15 0.15 0.16 0.16 0.16 0.17 0.17 0.18 0.19 0.20 0.21 0.20 0.20 0.20 0.21 0.21 0.22 0.23 0.24 0.25 0.26 0.27 0.29 0.31 0.33 0.35 0.38 0.42 0.46 0.48 0.50 0.50 0.52 0.54 0.56 0.57 0.58 0.59 0.59 0.57 0.55 0.53 0.52 0.50 0.47 0.44 0.40
0.10 0.10 0.10 0.10 0.10 0.10 0.10 0.10 0.10 0.10 0.10 0.10 0.11 0.11 0.11 0.11 0.12 0.12 0.12 0.12 0.11 0.11 0.11 0.11 0.11 0.12 0.12 0.12 0.13 0.13 0.14 0.14 0.14 0.15 0.15 0.15 0.15 0.15 0.15 0.15 0.15 0.15 0.16 0.16 0.16 0.16 0.17 0.18 0.19 0.20 0.20 0.19 0.19 0.20 0.20 0.21 0.22 0.23 0.24 0.24 0.25 0.27 0.29 0.31 0.34 0.37 0.41 0.44 0.46 0.48 0.50 0.51 0.53 0.55 0.55 0.56 0.57 0.58 0.57 0.55 0.53 0.52 0.50 0.48 0.45
0.10 0.10 0.10 0.10 0.10 0.10 0.10 0.10 0.10 0.10 0.11 0.11 0.11 0.11 0.11 0.12 0.12 0.12 0.12 0.12 0.11 0.12 0.12 0.12 0.12 0.12 0.12 0.12 0.12 0.13 0.13 0.13 0.13 0.13 0.14 0.14 0.15 0.15 0.15 0.15 0.16 0.15 0.15 0.15 0.15 0.15 0.16 0.16 0.17 0.18 0.18 0.18 0.18 0.18 0.19 0.19 0.20 0.21 0.22 0.23 0.23 0.23 0.24 0.26 0.29 0.32 0.35 0.40 0.43 0.45 0.48 0.51 0.54 0.52 0.53 0.54 0.55 0.54 0.55 0.55 0.54 0.53 0.51 0.52 0.49
0.10 0.10 0.10 0.09 0.10 0.10 0.10 0.10 0.10 0.10 0.10 0.11 0.11 0.11 0.11 0.12 0.12 0.12 0.13 0.12 0.12 0.12 0.12 0.12 0.13 0.12 0.12 0.12 0.12 0.13 0.13 0.13 0.13 0.13 0.13 0.13 0.14 0.14 0.14 0.15 0.14 0.15 0.15 0.15 0.14 0.15 0.15 0.16 0.16 0.15 0.16 0.16 0.17 0.18 0.17 0.18 0.18 0.19 0.20 0.21 0.21 0.21 0.21 0.23 0.25 0.27 0.30 0.33 0.38 0.42 0.45 0.48 0.51 0.51 0.52 0.52 0.53 0.53 0.52 0.51 0.51 0.51 0.50 0.50 0.52
0.10 0.10 0.10 0.10 0.10 0.10 0.10 0.10 0.10 0.10 0.11 0.11 0.11 0.12 0.12 0.12 0.12 0.13 0.13 0.12 0.13 0.13 0.13 0.13 0.13 0.12 0.12 0.12 0.12 0.12 0.12 0.12 0.12 0.12 0.12 0.13 0.13 0.14 0.15 0.14 0.14 0.14 0.14 0.14 0.14 0.14 0.14 0.14 0.14 0.14 0.14 0.14 0.15 0.16 0.17 0.17 0.17 0.17 0.18 0.19 0.19 0.20 0.20 0.20 0.22 0.23 0.26 0.29 0.32 0.36 0.42 0.45 0.48 0.49 0.50 0.51 0.52 0.52 0.52 0.51 0.50 0.50 0.49 0.50 0.51
0.10 0.10 0.10 0.10 0.10 0.10 0.10 0.10 0.10 0.10 0.11 0.11 0.12 0.12 0.12 0.12 0.13 0.13 0.13 0.13 0.13 0.13 0.13 0.13 0.13 0.13 0.12 0.12 0.12 0.11 0.11 0.11 0.11 0.11 0.11 0.11 0.12 0.12 0.13 0.13 0.14 0.14 0.14 0.14 0.14 0.14 0.14 0.13 0.13 0.14 0.14 0.14 0.14 0.14 0.15 0.16 0.16 0.16 0.16 0.17 0.18 0.18 0.19 0.19 0.20 0.21 0.23 0.25 0.27 0.30 0.36 0.42 0.44 0.45 0.48 0.50 0.51 0.52 0.52 0.52 0.52 0.53 0.53 0.51 0.51
0.09 0.10 0.10 0.10 0.10 0.10 0.10 0.10 0.10 0.11 0.11 0.12 0.12 0.12 0.12 0.12 0.13 0.13 0.13 0.13 0.13 0.13 0.12 0.12 0.12 0.12 0.12 0.12 0.12 0.12 0.12 0.12 0.12 0.12 0.11 0.11 0.11 0.11 0.11 0.11 0.12 0.13 0.13 0.13 0.14 0.14 0.14 0.13 0.13 0.12 0.13 0.13 0.14 0.14 0.14 0.14 0.15 0.16 0.16 0.16 0.17 0.17 0.17 0.18 0.18 0.19 0.21 0.23 0.24 0.26 0.30 0.35 0.40 0.42 0.45 0.47 0.49 0.49 0.51 0.51 0.51 0.52 0.52 0.53 0.53
0.09 0.09 0.09 0.09 0.10 0.10 0.10 0.10 0.11 0.11 0.12 0.12 0.11 0.11 0.12 0.13 0.13 0.13 0.13 0.12 0.12 0.12 0.12 0.12 0.12 0.12 0.12 0.12 0.12 0.12 0.12 0.12 0.13 0.12 0.12 0.11 0.11 0.11 0.11 0.11 0.11 0.11 0.11 0.11 0.12 0.12 0.13 0.13 0.13 0.13 0.12 0.12 0.13 0.13 0.13 0.13 0.13 0.14 0.15 0.15 0.16 0.16 0.16 0.17 0.17 0.18 0.19 0.20 0.22 0.24 0.26 0.30 0.35 0.39 0.41 0.44 0.47 0.48 0.49 0.49 0.49 0.50 0.52 0.52 0.52
0.09 0.09 0.09 0.10 0.10 0.10 0.10 0.11 0.12 0.12 0.12 0.11 0.11 0.12 0.12 0.12 0.12 0.12 0.12 0.12 0.12 0.12 0.12 0.12 0.12 0.12 0.12 0.12 0.12 0.12 0.13 0.13 0.12 0.12 0.11 0.11 0.11 0.11 0.11 0.11 0.11 0.10 0.10 0.10 0.10 0.11 0.12 0.12 0.12 0.12 0.12 0.12 0.12 0.12 0.13 0.13 0.13 0.13 0.13 0.13 0.15 0.16 0.16 0.16 0.16 0.16 0.17 0.18 0.20 0.22 0.24 0.26 0.29 0.35 0.39 0.41 0.44 0.46 0.47 0.48 0.49 0.49 0.50 0.50 0.50
0.09 0.09 0.10 0.10 0.10 0.10 0.11 0.11 0.12 0.11 0.11 0.11 0.12 0.12 0.12 0.12 0.11 0.11 0.11 0.11 0.12 0.12 0.12 0.12 0.12 0.12 0.12 0.12 0.12 0.12 0.12 0.12 0.11 0.11 0.11 0.11 0.12 0.11 0.11 0.10 0.10 0.10 0.10 0.11 0.11 0.11 0.11 0.11 0.12 0.12 0.12 0.12 0.12 0.12 0.12 0.12 0.13 0.13 0.13 0.13 0.13 0.14 0.15 0.15 0.15 0.15 0.16 0.17 0.18 0.20 0.22 0.24 0.25 0.28 0.34 0.39 0.41 0.43 0.46 0.46 0.48 0.49 0.49 0.48 0.48
0.09 0.09 0.10 0.10 0.10 0.11 0.11 0.11 0.11 0.11 0.11 0.11 0.11 0.11 0.11 0.11 0.11 0.11 0.11 0.12 0.12 0.12 0.12 0.12 0.12 0.12 0.11 0.12 0.12 0.12 0.12 0.12 0.12 0.12 0.12 0.12 0.11 0.10 0.11 0.11 0.11 0.11 0.12 0.11 0.11 0.11 0.11 0.11 0.11 0.12 0.12 0.12 0.12 0.12 0.12 0.12 0.12 0.12 0.13 0.13 0.12 0.12 0.13 0.14 0.14 0.15 0.15 0.15 0.16 0.17 0.20 0.23 0.24 0.26 0.29 0.34 0.38 0.41 0.42 0.43 0.46 0.47 0.47 0.47 0.47
0.09 0.09 0.10 0.11 0.11 0.11 0.12 0.11 0.11 0.10 0.10 0.10 0.10 0.11 0.11 0.10 0.10 0.11 0.11 0.12 0.12 0.12 0.11 0.11 0.11 0.11 0.11 0.11 0.12 0.12 0.12 0.12 0.12 0.12 0.11 0.10 0.10 0.11 0.12 0.12 0.11 0.11 0.11 0.11 0.11 0.11 0.11 0.11 0.11 0.11 0.12 0.12 0.12 0.12 0.13 0.12 0.12 0.12 0.12 0.13 0.13 0.13 0.13 0.13 0.13 0.14 0.15 0.15 0.15 0.16 0.17 0.18 0.21 0.22 0.25 0.29 0.35 0.39 0.41 0.42 0.44 0.46 0.46 0.46 0.45
0.09 0.10 0.10 0.11 0.12 0.12 0.11 0.11 0.10 0.10 0.10 0.10 0.10 0.11 0.10 0.10 0.11 0.11 0.11 0.11 0.11 0.11 0.10 0.10 0.10 0.11 0.11 0.11 0.12 0.12 0.12 0.11 0.11 0.10 0.10 0.11 0.11 0.12 0.12 0.11 0.11 0.11 0.11 0.11 0.11 0.12 0.12 0.12 0.11 0.11 0.11 0.12 0.12 0.12 0.12 0.12 0.13 0.13 0.13 0.13 0.13 0.13 0.13 0.13 0.13 0.13 0.14 0.14 0.15 0.16 0.16 0.17 0.19 0.21 0.23 0.25 0.29 0.35 0.38 0.41 0.43 0.45 0.47 0.46 0.44
0.10 0.10 0.11 0.11 0.11 0.11 0.11 0.11 0.10 0.10 0.10 0.10 0.10 0.10 0.10 0.10 0.10 0.11 0.11 0.11 0.11 0.10 0.10 0.10 0.10 0.11 0.11 0.12 0.11 0.11 0.10 0.10 0.10 0.11 0.11 0.12 0.12 0.11 0.11 0.11 0.11 0.11 0.11 0.12 0.12 0.11 0.11 0.11 0.11 0.11 0.11 0.11 0.11 0.11 0.11 0.12 0.12 0.12 0.13 0.13 0.13 0.13 0.13 0.13 0.13 0.13 0.13 0.14 0.15 0.16 0.17 0.18 0.19 0.20 0.21 0.22 0.24 0.28 0.33 0.37 0.40 0.42 0.45 0.47 0.47
0.10 0.11 0.11 0.11 0.11 0.11 0.11 0.11 0.11 0.11 0.11 0.11 0.11 0.10 0.10 0.10 0.10 0.11 0.11 0.10 0.10 0.10 0.10 0.10 0.10 0.11 0.11 0.11 0.10 0.10 0.10 0.10 0.11 0.11 0.12 0.12 0.11 0.11 0.11 0.10 0.10 0.11 0.11 0.11 0.11 0.11 0.11 0.11 0.11 0.11 0.11 0.11 0.11 0.11 0.11 0.12 0.12 0.12 0.12 0.13 0.13 0.13 0.13 0.13 0.12 0.12 0.12 0.13 0.14 0.15 0.16 0.17 0.18 0.19 0.20 0.22 0.23 0.25 0.29 0.33 0.36 0.39 0.42 0.44 0.46
0.11 0.11 0.12 0.12 0.12 0.11 0.11 0.11 0.11 0.11 0.11 0.11 0.11 0.10 0.10 0.11 0.10 0.10 0.10 0.10 0.10 0.09 0.09 0.10 0.11 0.11 0.10 0.10 0.10 0.10 0.10 0.11 0.11 0.12 0.12 0.11 0.10 0.10 0.10 0.10 0.10 0.10 0.10 0.10 0.10 0.10 0.11 0.11 0.11 0.11 0.11 0.11 0.11 0.11 0.11 0.12 0.12 0.12 0.12 0.12 0.13 0.13 0.13 0.13 0.12 0.12 0.12 0.13 0.13 0.14 0.16 0.17 0.19 0.20 0.21 0.21 0.22 0.23 0.24 0.28 0.32 0.35 0.38 0.41 0.44
0.12 0.12 0.12 0.12 0.11 0.11 0.11 0.11 0.11 0.11 0.11 0.11 0.10 0.11 0.11 0.10 0.10 0.10 0.10 0.10 0.09 0.09 0.10 0.10 0.10 0.10 0.10 0.10 0.10 0.11 0.11 0.11 0.12 0.11 0.10 0.10 0.10 0.10 0.10 0.10 0.10 0.10 0.10 0.10 0.10 0.10 0.11 0.11 0.11 0.11 0.11 0.11 0.11 0.11 0.11 0.12 0.12 0.12 0.12 0.12 0.13 0.12 0.12 0.12 0.13 0.13 0.13 0.13 0.14 0.14 0.14 0.15 0.16 0.17 0.18 0.19 0.20 0.22 0.23 0.25 0.27 0.30 0.34 0.38 0.41
0.12 0.12 0.12 0.12 0.11 0.11 0.11 0.11 0.11 0.11 0.11 0.11 0.10 0.11 0.10 0.10 0.10 0.10 0.09 0.09 0.09 0.09 0.10 0.10 0.09 0.09 0.09 0.10 0.10 0.10 0.11 0.11 0.11 0.10 0.10 0.10 0.10 0.10 0.10 0.10 0.10 0.10 0.11 0.11 0.11 0.11 0.11 0.11 0.11 0.11 0.11 0.10 0.11 0.11 0.12 0.12 0.12 0.12 0.13 0.13 0.12 0.12 0.12 0.12 0.12 0.13 0.13 0.14 0.15 0.16 0.16 0.16 0.16 0.16 0.17 0.18 0.19 0.20 0.21 0.22 0.24 0.26 0.29 0.33 0.37
0.13 0.13 0.12 0.12 0.12 0.12 0.12 0.12 0.11 0.11 0.11 0.10 0.10 0.10 0.10 0.09 0.09 0.09 0.09 0.09 0.09 0.09 0.09 0.09 0.09 0.09 0.09 0.10 0.10 0.11 0.11 0.10 0.10 0.10 0.10 0.10 0.10 0.10 0.10 0.10 0.10 0.10 0.10 0.11 0.11 0.11 0.11 0.11 0.11 0.11 0.11 0.11 0.11 0.11 0.12 0.12 0.12 0.13 0.13 0.13 0.13 0.13 0.12 0.12 0.13 0.13 0.14 0.14 0.15 0.16 0.17 0.17 0.18 0.18 0.18 0.18 0.19 0.21 0.21 0.21 0.22 0.23 0.25 0.28 0.31
0.13 0.13 0.12 0.12 0.12 0.12 0.12 0.11 0.11 0.11 0.11 0.11 0.10 0.10 0.09 0.09 0.09 0.09 0.09 0.09 0.09 0.09 0.09 0.09 0.09 0.09 0.10 0.10 0.10 0.11 0.10 0.10 0.10 0.10 0.10 0.10 0.10 0.10 0.10 0.10 0.10 0.10 0.10 0.11 0.11 0.11 0.11 0.11 0.11 0.11 0.11 0.11 0.11 0.11 0.12 0.12 0.13 0.13 0.13 0.13 0.13 0.12 0.12 0.12 0.12 0.13 0.13 0.13 0.14 0.15 0.16 0.16 0.16 0.16 0.16 0.17 0.18 0.19 0.20 0.20 0.20 0.21 0.22 0.24 0.26
0.13 0.13 0.12 0.12 0.12 0.12 0.12 0.11 0.11 0.10 0.10 0.10 0.10 0.10 0.09 0.08 0.08 0.08 0.08 0.08 0.09 0.09 0.09 0.09 0.09 0.09 0.10 0.10 0.11 0.11 0.10 0.10 0.10 0.10 0.10 0.10 0.10 0.10 0.10 0.11 0.11 0.11 0.11 0.11 0.11 0.11 0.11 0.11 0.11 0.11 0.11 0.11 0.11 0.11 0.12 0.12 0.13 0.13 0.14 0.14 0.13 0.13 0.12 0.12 0.12 0.12 0.13 0.13 0.13 0.13 0.13 0.14 0.15 0.16 0.16 0.17 0.18 0.19 0.19 0.19 0.19 0.19 0.19 0.20 0.23
0.13 0.13 0.13 0.12 0.12 0.12 0.11 0.11 0.10 0.10 0.10 0.10 0.10 0.09 0.08 0.08 0.08 0.08 0.08 0.08 0.08 0.09 0.09 0.09 0.09 0.09 0.10 0.10 0.10 0.10 0.10 0.10 0.10 0.10 0.10 0.10 0.10 0.10 0.10 0.10 0.11 0.11 0.11 0.11 0.11 0.11 0.11 0.11 0.11 0.11 0.11 0.11 0.11 0.11 0.12 0.13 0.13 0.13 0.13 0.14 0.14 0.13 0.12 0.12 0.13 0.13 0.12 0.13 0.14 0.14 0.14 0.14 0.14 0.14 0.16 0.17 0.18 0.19 0.19 0.20 0.20 0.18 0.18 0.18 0.21
0.13 0.13 0.12 0.11 0.11 0.11 0.11 0.11 0.10 0.10 0.10 0.09 0.09 0.09 0.08 0.08 0.08 0.08 0.08 0.08 0.08 0.09 0.09 0.09 0.09 0.09 0.10 0.10 0.10 0.10 0.10 0.10 0.10 0.10 0.10 0.10 0.10 0.10 0.10 0.10 0.10 0.11 0.11 0.11 0.11 0.11 0.11 0.11 0.11 0.11 0.11 0.11 0.12 0.12 0.12 0.13 0.13 0.13 0.13 0.14 0.13 0.13 0.13 0.13 0.13 0.13 0.13 0.12 0.12 0.12 0.12 0.12 0.14 0.16 0.17 0.18 0.18 0.19 0.20 0.20 0.21 0.19 0.19 0.19 0.21
0.13 0.12 0.12 0.11 0.11 0.11 0.11 0.10 0.10 0.10 0.10 0.09 0.09 0.08 0.08 0.08 0.08 0.07 0.08 0.08 0.09 0.09 0.09 0.09 0.09 0.09 0.10 0.10 0.09 0.09 0.09 0.09 0.09 0.09 0.09 0.10 0.10 0.10 0.10 0.10 0.11 0.11 0.10 0.10 0.10 0.11 0.11 0.11 0.11 0.11 0.11 0.11 0.12 0.12 0.12 0.12 0.12 0.12 0.13 0.13 0.13 0.13 0.13 0.13 0.12 0.12 0.13 0.12 0.11 0.11 0.13 0.14 0.15 0.16 0.17 0.17 0.18 0.19 0.20 0.20 0.21 0.22 0.22 0.21 0.21
0.12 0.11 0.11 0.11 0.11 0.11 0.10 0.10 0.10 0.10 0.09 0.09 0.09 0.08 0.08 0.08 0.07 0.08 0.08 0.08 0.08 0.09 0.09 0.09 0.09 0.09 0.09 0.09 0.09 0.09 0.09 0.09 0.09 0.09 0.09 0.09 0.10 0.10 0.10 0.10 0.10 0.10 0.10 0.10 0.10 0.10 0.10 0.10 0.10 0.11 0.11 0.11 0.11 0.11 0.12 0.12 0.12 0.12 0.13 0.13 0.13 0.13 0.13 0.13 0.13 0.12 0.12 0.12 0.13 0.14 0.15 0.15 0.15 0.16 0.17 0.18 0.18 0.19 0.19 0.20 0.21 0.22 0.23 0.23 0.23
0.12 0.12 0.12 0.11 0.11 0.10 0.10 0.10 0.10 0.09 0.09 0.09 0.08 0.08 0.08 0.07 0.07 0.08 0.08 0.08 0.08 0.08 0.08 0.08 0.09 0.09 0.09 0.09 0.09 0.09 0.09 0.09 0.09 0.09 0.09 0.09 0.09 0.10 0.10 0.10 0.10 0.10 0.10 0.10 0.10 0.10 0.10 0.10 0.10 0.10 0.11 0.11 0.11 0.11 0.12 0.12 0.12 0.13 0.13 0.13 0.13 0.13 0.13 0.13 0.13 0.12 0.12 0.12 0.13 0.13 0.14 0.15 0.15 0.16 0.17 0.18 0.19 0.19 0.20 0.20 0.21 0.22 0.23 0.24 0.24
0.12 0.11 0.12 0.11 0.11 0.10 0.10 0.09 0.09 0.09 0.09 0.09 0.08 0.08 0.07 0.07 0.07 0.08 0.08 0.08 0.08 0.08 0.08 0.08 0.08 0.09 0.08 0.09 0.09 0.09 0.08 0.09 0.09 0.09 0.09 0.09 0.09 0.09 0.09 0.10 0.10 0.10 0.10 0.10 0.10 0.10 0.10 0.10 0.10 0.10 0.10 0.10 0.11 0.11 0.12 0.12 0.12 0.13 0.13 0.13 0.13 0.13 0.13 0.13 0.13 0.13 0.13 0.13 0.13 0.14 0.14 0.15 0.15 0.16 0.17 0.18 0.19 0.20 0.20 0.21 0.21 0.22 0.22 0.23 0.23
0.12 0.12 0.11 0.11 0.11 0.10 0.09 0.09 0.09 0.09 0.09 0.08 0.08 0.08 0.07 0.07 0.08 0.08 0.08 0.08 0.08 0.08 0.08 0.08 0.08 0.08 0.08 0.08 0.08 0.08 0.08 0.08 0.09 0.09 0.09 0.09 0.09 0.09 0.09 0.09 0.09 0.09 0.09 0.09 0.09 0.10 0.10 0.10 0.10 0.10 0.10 0.10 0.11 0.11 0.11 0.12 0.12 0.12 0.12 0.12 0.13 0.13 0.13 0.13 0.13 0.13 0.14 0.14 0.14 0.14 0.15 0.15 0.15 0.16 0.17 0.18 0.19 0.20 0.21 0.21 0.22 0.22 0.22 0.22 0.22
0.12 0.12 0.11 0.11 0.10 0.09 0.09 0.09 0.08 0.08 0.08 0.08 0.08 0.08 0.08 0.08 0.08 0.08 0.08 0.08 0.08 0.08 0.08 0.08 0.08 0.08 0.08 0.08 0.08 0.08 0.08 0.08 0.08 0.09 0.09 0.09 0.09 0.09 0.09 0.09 0.09 0.09 0.09 0.09 0.09 0.09 0.09 0.10 0.10 0.10 0.10 0.10 0.10 0.11 0.11 0.11 0.12 0.12 0.12 0.13 0.13 0.13 0.13 0.13 0.13 0.13 0.13 0.13 0.14 0.14 0.15 0.16 0.16 0.16 0.17 0.18 0.18 0.19 0.20 0.20 0.21 0.21 0.22 0.22 0.22
0.12 0.12 0.11 0.10 0.10 0.09 0.09 0.08 0.08 0.08 0.08 0.08 0.08 0.08 0.08 0.08 0.08 0.08 0.08 0.08 0.08 0.07 0.07 0.07 0.08 0.08 0.08 0.08 0.08 0.08 0.08 0.08 0.08 0.08 0.08 0.08 0.08 0.09 0.09 0.09 0.09 0.09 0.09 0.09 0.09 0.09 0.09 0.09 0.09 0.10 0.10 0.10 0.10 0.10 0.10 0.11 0.12 0.12 0.12 0.13 0.13 0.13 0.13 0.13 0.13 0.13 0.13 0.14 0.14 0.14 0.15 0.15 0.15 0.15 0.16 0.16 0.17 0.18 0.19 0.19 0.20 0.20 0.21 0.21 0.22
0.12 0.11 0.11 0.10 0.09 0.09 0.08 0.08 0.08 0.08 0.08 0.08 0.08 0.08 0.08 0.08 0.08 0.08 0.08 0.08 0.07 0.07 0.07 0.07 0.08 0.08 0.08 0.08 0.08 0.08 0.08 0.08 0.08 0.08 0.08 0.08 0.08 0.09 0.09 0.09 0.09 0.09 0.09 0.09 0.09 0.09 0.10 0.10 0.10 0.10 0.10 0.09 0.10 0.10 0.10 0.11 0.12 0.12 0.12 0.12 0.12 0.12 0.13 0.13 0.13 0.14 0.14 0.14 0.13 0.13 0.13 0.14 0.14 0.14 0.14 0.15 0.16 0.17 0.18 0.19 0.19 0.19 0.20 0.20 0.20
0.11 0.11 0.11 0.10 0.09 0.09 0.08 0.08 0.08 0.08 0.08 0.08 0.08 0.08 0.08 0.08 0.08 0.08 0.08 0.08 0.07 0.07 0.07 0.07 0.07 0.07 0.07 0.07 0.07 0.07 0.08 0.08 0.07 0.07 0.08 0.08 0.08 0.09 0.09 0.09 0.09 0.09 0.09 0.10 0.10 0.10 0.10 0.10 0.10 0.10 0.10 0.10 0.10 0.10 0.11 0.11 0.12 0.12 0.12 0.12 0.12 0.12 0.13 0.13 0.13 0.14 0.14 0.13 0.12 0.12 0.13 0.13 0.13 0.13 0.13 0.14 0.15 0.16 0.16 0.17 0.17 0.18 0.19 0.19 0.19
0.11 0.10 0.10 0.09 0.09 0.09 0.08 0.08 0.08 0.08 0.08 0.08 0.08 0.08 0.08 0.08 0.08 0.08 0.08 0.08 0.07 0.07 0.07 0.07 0.07 0.07 0.07 0.07 0.07 0.07 0.07 0.07 0.07 0.07 0.07 0.07 0.08 0.08 0.08 0.09 0.09 0.09 0.09 0.09 0.10 0.10 0.10 0.11 0.10 0.10 0.10 0.10 0.11 0.11 0.11 0.11 0.12 0.12 0.12 0.11 0.12 0.12 0.12 0.12 0.13 0.13 0.13 0.12 0.12 0.11 0.12 0.13 0.13 0.13 0.13 0.13 0.14 0.15 0.16 0.16 0.16 0.18 0.18 0.18 0.19
Wind_Speed
34 34 34 35 34 34 34 34 34 34 34 33 33 33 33 33 32 32 32 32 31 31 31 31 31 32 32 33 33 34 34 34 32 30 31 32 32 32 33 34 36 37 37 37 38 40 42 43 44 44 44 43 42 42 40 38 38 38 38 38 38 38 38 38 38 38 37 36 36 36 36 36 36 36 37 37 37 36 36 36 35 35 35 34 34
35 35 35 35 35 35 35 35 35 35 35 34 34 34 33 33 33 33 33 32 32 31 31 30 31 32 32 32 33 34 34 35 34 32 31 31 32 32 33 34 35 36 37 38 38 38 40 42 43 45 45 44 44 43 42 40 39 37 37 37 37 37 38 38 38 38 37 37 36 36 36 37 37 37 38 38 38 38 37 37 37 36 36 36 35
36 36 37 37 37 36 36 35 35 35 35 35 35 34 34 34 33 33 33 32 32 31 31 30 31 32 33 33 33 33 33 34 35 35 33 32 33 33 33 33 34 35 36 37 37 37 38 40 42 44 46 45 44 44 44 43 42 41 39 38 37 37 37 38 39 38 37 36 36 36 36 36 37 38 38 38 39 39 38 38 38 38 37 37 37
37 37 37 37 37 37 36 36 36 36 36 35 35 35 35 35 34 34 33 33 32 32 31 31 31 31 32 33 34 33 33 33 34 35 34 33 33 34 34 33 33 35 35 36 36 37 37 38 39 43 45 46 45 45 45 45 44 44 42 41 40 38 38 37 38 38 37 36 35 35 36 36 37 38 38 39 39 39 39 39 39 39 39 39 39
37 38 37 37 37 37 37 37 36 36 36 36 36 36 36 35 35 35 34 34 33 33 33 32 32 31 32 32 33 34 33 33 33 33 34 34 34 33 35 35 34 34 35 36 36 36 37 37 38 40 43 45 46 46 46 46 46 45 45 45 43 42 41 40 40 40 39 38 37 36 35 36 37 37 37 39 40 40 40 40 41 41 41 40 40
37 37 37 37 37 36 36 36 36 36 36 36 36 36 36 36 36 35 35 35 34 34 33 33 33 32 32 32 32 33 34 34 34 33 34 34 34 34 34 36 36 35 35 36 37 37 37 37 38 39 40 43 45 46 46 46 47 47 46 46 46 45 44 43 43 43 42 41 40 39 37 37 37 37 37 38 39 40 41 41 41 41 41 42 42
35 36 36 36 36 36 35 36 36 36 36 36 36 36 36 36 36 36 36 36 35 35 34 34 33 33 33 32 32 33 34 35 35 35 35 35 35 35 34 35 36 37 37 36 36 37 38 38 38 39 40 41 43 44 45 46 47 47 47 47 46 46 46 45 45 44 43 43 43 42 40 39 38 38 38 37 37 40 41 41 42 42 42 42 43
35 35 35 36 36 36 36 36 36 37 37 36 36 37 37 37 37 37 38 37 37 36 35 34 34 34 33 33 33 33 33 34 35 36 36 36 36 37 36 35 34 35 37 38 37 37 38 39 39 40 40 41 42 42 43 44 46 48 49 49 48 47 47 47 46 46 45 44 44 44 42 41 40 39 39 38 38 39 40 41 42 42 43 43 43
35 36 36 36 36 36 37 38 38 38 38 38 38 38 38 38 38 39 39 38 38 37 36 36 35 35 35 34 34 34 35 35 36 36 36 36 36 37 37 37 35 35 36 37 38 39 39 40 40 41 41 42 42 42 43 43 44 46 48 50 50 49 48 48 47 48 48 47 45 45 44 43 42 41 40 39 38 39 40 40 41 42 43 44 43
36 37 38 37 37 37 38 39 39 39 39 39 40 40 40 40 40 41 40 39 39 38 38 38 37 36 36 36 35 36 36 36 37 37 37 37 37 37 37 37 37 37 37 37 37 38 39 39 40 40 41 42 42 43 44 43 43 45 47 49 52 53 52 50 49 49 49 49 48 47 47 46 44 43 42 41 40 39 39 40 41 42 43 43 44
36 38 39 39 39 40 40 40 40 40 40 40 41 41 42 42 42 42 42 41 40 39 39 39 39 39 38 38 37 37 38 38 38 38 38 39 39 39 39 38 38 38 39 38 38 38 38 38 38 39 40 41 42 44 45 45 45 45 46 47 50 53 54 54 53 51 50 50 50 49 49 48 47 46 45 44 42 41 40 40 40 42 43 43 44
36 37 38 39 40 41 41 41 41 41 41 42 42 42 42 42 42 43 43 42 41 41 41 41 41 41 41 40 40 39 39 39 39 39 39 40 40 41 41 41 40 40 39 39 38 38 39 39 39 40 40 41 42 44 45 46 46 46 47 47 48 50 52 54 55 55 53 51 51 51 50 50 49 48 47 46 45 44 42 41 40 40 41 42 43
37 37 38 39 40 41 41 42 42 42 42 43 42 42 42 41 41 42 42 42 42 42 42 42 42 42 42 42 42 42 41 41 41 41 41 41 41 42 42 42 42 42 41 40 39 38 39 39 40 40 41 41 42 44 45 46 47 47 47 48 49 50 51 52 54 56 55 54 53 53 52 52 51 50 49 47 47 45 44 42 41 40 41 41 41
38 38 38 38 39 39 40 41 42 42 42 42 42 41 41 41 40 40 40 40 41 42 42 42 42 42 43 43 43 43 43 43 43 43 43 43 43 43 43 43 43 43 43 43 42 41 41 40 40 41 41 41 41 42 44 45 47 47 48 48 49 50 51 52 53 55 56 56 55 55 54 54 53 52 51 50 48 47 46 44 42 41 41 41 41
38 38 37 37 38 38 38 39 40 40 41 41 41 41 40 40 40 39 39 40 40 41 42 42 42 42 42 43 43 43 44 44 44 44 44 45 45 45 45 45 44 44 44 44 45 45 44 43 42 41 41 41 41 41 42 44 45 47 48 49 49 49 50 52 53 54 56 56 56 56 56 56 55 54 53 53 51 50 49 47 45 44 43 42 42
38 37 37 37 37 37 38 38 39 39 39 39 39 40 40 40 40 40 40 40 41 41 41 42 43 43 43 43 43 43 43 44 45 45 45 46 46 46 46 46 46 46 46 46 46 46 46 46 45 44 43 41 41 41 42 43 44 45 46 48 49 50 51 52 52 53 55 56 57 57 57 57 57 56 55 55 54 53 51 50 49 47 45 44 43
37 37 37 37 37 38 38 39 39 38 37 38 38 39 39 40 40 40 41 42 42 42 42 43 43 43 43 43 43 43 43 44 45 46 46 47 47 47 47 48 48 48 49 48 48 48 48 48 48 47 46 44 43 43 43 43 44 44 46 47 48 50 51 52 53 53 54 55 56 57 57 57 57 57 57 56 55 54 53 53 52 50 48 46 45
37 37 37 37 38 38 39 40 39 38 38 37 37 38 38 39 39 40 41 42 43 43 43 44 44 44 43 43 43 43 43 44 45 46 46 47 48 48 48 49 49 50 50 51 51 51 50 50 50 50 49 48 48 47 46 45 45 45 46 47 48 49 51 52 53 54 54 54 55 57 58 58 57 57 57 57 56 55 55 54 54 53 51 49 47
37 37 36 37 38 38 40 41 40 39 38 38 38 38 38 38 38 39 40 41 42 43 44 44 45 45 44 44 44 44 44 44 45 45 46 47 48 49 49 50 51 51 52 53 53 53 53 53 53 53 53 52 52 51 50 49 49 48 48 48 49 49 50 51 53 54 54 54 54 55 57 58 58 58 58 57 57 56 55 55 55 55 54 53 51
37 36 37 38 39 39 40 41 40 39 39 39 39 39 39 38 38 38 39 40 41 42 43 43 44 44 44 44 45 45 45 45 45 46 47 48 49 50 51 52 52 53 53 54 54 55 56 56 56 55 55 55 55 54 54 53 53 52 52 51 51 51 51 51 52 53 54 55 55 55 55 56 57 59 59 60 59 58 57 56 56 56 56 55 53
37 37 38 39 40 40 41 41 39 39 39 39 39 39 39 39 39 39 39 40 40 40 41 41 42 43 43 44 45 45 46 47 47 47 48 49 49 50 51 52 53 53 54 55 56 56 57 57 58 58 58 58 57 56 56 56 56 56 55 54 53 53 53 53 53 53 54 55 56 56 55 55 56 57 59 60 62 62 61 59 58 58 58 57 56
38 38 39 40 40 41 42 40 39 39 39 39 39 39 39 39 40 40 40 39 40 40 40 40 40 41 42 43 44 45 47 48 49 49 49 49 50 50 51 52 53 54 55 55 56 57 57 58 59 60 60 60 60 59 58 58 59 59 58 57 56 56 55 55 55 55 55 55 56 57 57 56 55 55 57 59 61 62 63 63 62 61 61 60 59
39 40 40 40 41 42 42 40 39 39 39 39 39 39 40 40 40 40 39 40 40 40 40 40 40 41 41 42 44 45 47 48 49 50 50 51 51 52 52 53 54 55 56 56 57 58 58 59 60 61 62 62 62 62 61 60 61 61 61 60 59 58 57 57 57 57 56 56 57 58 58 57 56 56 56 57 58 60 62 63 64 63 63 62 61
40 40 40 41 42 42 41 39 38 38 38 39 39 40 41 41 40 39 39 40 40 39 40 40 40 41 42 42 43 44 46 47 48 49 50 51 51 52 53 54 55 55 56 57 58 59 60 60 61 62 63 64 64 64 64 63 63 63 63 62 61 60 60 59 59 59 59 58 58 59 59 59 58 57 57 56 56 57 59 61 62 62 63 63 62
41 41 41 42 43 42 40 39 39 39 39 39 40 41 42 41 39 39 40 40 39 39 40 40 41 41 41 42 43 43 44 45 46 47 48 50 51 52 53 54 55 55 56 57 58 59 60 61 62 63 64 64 65 66 66 66 66 65 65 64 64 63 62 62 61 61 61 61 61 61 61 60 60 59 59 57 57 57 57 58 60 60 61 61 61
42 42 42 42 42 41 39 40 40 40 40 41 41 42 41 40 39 40 40 40 40 40 40 40 40 40 41 41 42 42 42 43 43 45 46 48 50 51 52 53 54 55 56 57 58 59 60 61 62 64 64 65 66 67 67 68 67 67 67 67 66 66 65 65 64 64 63 63 63 63 62 62 62 62 61 60 59 58 58 58 59 60 60 61 61
43 42 42 42 41 40 40 41 41 41 42 42 42 41 41 40 40 41 41 41 41 40 40 39 39 40 40 40 41 41 41 42 43 44 45 46 47 48 50 51 53 54 56 57 58 59 60 61 62 63 65 66 67 67 68 69 69 69 69 69 69 68 67 67 66 66 65 65 64 64 63 63 64 63 63 62 60 60 60 60 60 60 60 61 61
43 43 43 42 41 40 41 42 42 42 43 42 42 41 41 41 42 42 41 41 40 40 39 39 39 39 39 40 40 40 41 41 42 43 44 44 45 46 47 48 49 51 52 53 55 57 58 60 61 63 64 65 67 67 68 68 69 70 70 70 70 71 70 69 68 68 67 67 66 66 65 65 65 65 65 64 62 61 61 62 61 60 60 61 61
43 43 42 41 40 41 42 43 43 44 44 43 42 42 42 42 43 42 41 40 39 39 39 39 39 39 39 40 40 40 40 40 40 40 41 42 43 43 44 44 45 46 48 49 51 52 54 56 58 59 61 63 64 66 67 67 68 69 70 71 72 72 72 72 71 70 69 68 68 68 67 67 67 67 67 67 65 63 62 62 63 62 62 61 61
43 42 41 41 41 43 43 44 45 44 44 44 43 43 43 43 43 42 41 39 39 39 39 39 40 40 40 39 39 39 39 39 39 39 40 40 40 40 40 41 43 44 45 46 48 49 50 52 53 55 56 58 60 62 65 67 68 69 70 71 72 72 73 73 73 72 71 70 69 69 69 69 69 69 69 69 68 66 64 63 63 63 63 62 62
43 42 41 41 42 43 44 45 45 45 45 45 44 44 44 43 43 42 40 39 39 39 39 40 40 39 39 38 37 37 37 38 38 39 39 38 38 38 39 40 41 42 42 43 44 45 46 48 50 51 53 55 57 59 62 65 67 69 70 70 71 72 73 73 73 74 73 72 71 70 70 69 69 69 69 69 69 68 66 65 64 64 64 64 63
43 41 41 42 43 45 46 46 46 45 45 45 45 45 44 44 43 41 40 39 39 39 40 40 39 38 37 36 37 37 38 38 37 37 36 36 36 37 38 39 39 40 40 41 42 43 44 45 47 49 50 52 54 56 59 62 64 67 69 70 71 72 72 73 74 74 75 74 73 72 71 70 69 69 69 69 69 69 68 67 65 65 65 65 65
42 42 43 44 45 46 46 46 46 46 46 46 46 46 45 44 43 41 40 40 39 40 40 39 37 36 36 37 37 38 37 36 36 35 34 35 36 37 37 37 38 39 39 40 40 41 42 43 44 46 48 49 51 53 56 58 61 64 66 68 70 71 72 73 74 75 75 75 74 73 72 70 70 69 69 69 69 69 69 68 67 65 64 65 66
42 43 44 45 46 46 46 47 47 47 47 47 46 46 46 44 43 42 41 40 40 40 38 37 36 35 37 37 37 36 35 35 34 34 34 35 35 36 37 37 37 38 38 38 39 40 40 41 42 43 45 46 48 50 53 55 57 60 63 65 67 70 72 73 74 74 75 75 75 74 73 72 70 69 68 68 68 68 68 69 68 66 64 64 65
44 45 46 46 46 47 47 48 47 47 47 47 47 47 46 45 44 42 41 40 40 38 36 35 35 36 37 37 36 35 34 34 33 33 34 35 36 36 36 36 36 37 37 37 37 38 38 39 39 40 41 43 44 46 49 51 53 56 58 60 62 66 69 71 72 73 74 74 75 74 74 74 73 71 70 69 68 67 68 68 68 67 65 64 64
46 46 47 47 47 47 48 49 48 48 48 48 48 47 46 45 44 42 41 40 39 37 35 35 36 36 36 35 35 34 33 33 33 34 34 35 35 35 35 35 35 35 35 35 35 35 36 36 37 37 39 40 40 42 44 46 48 51 53 55 57 60 63 67 70 71 73 74 74 74 74 74 74 72 71 71 70 69 68 69 69 69 67 65 64
47 47 47 47 47 48 49 49 48 48 48 49 49 48 46 45 43 42 40 39 37 35 35 36 36 36 35 34 34 33 33 33 33 34 34 35 35 35 34 34 34 34 34 33 33 34 34 34 35 35 36 37 37 38 40 41 43 46 48 50 52 55 58 61 65 68 70 72 73 74 73 73 73 72 70 69 69 69 69 68 69 69 69 68 66
47 47 47 47 48 49 49 49 48 48 49 49 49 48 46 45 43 41 40 38 36 35 35 36 36 35 34 33 33 32 32 33 33 33 34 34 34 34 33 33 33 33 33 32 33 33 32 32 33 33 34 34 34 35 37 38 39 40 42 45 47 50 53 56 59 62 65 68 71 73 73 73 73 73 72 70 70 70 69 68 68 68 69 69 68
47 47 47 48 49 49 49 48 48 49 49 50 49 48 46 44 43 41 39 38 36 35 35 35 35 34 33 33 32 32 32 33 33 33 33 33 33 33 32 32 32 32 32 31 31 31 31 31 31 31 32 32 31 32 33 34 35 36 38 40 42 45 48 50 53 56 59 63 66 70 72 72 72 73 72 72 71 70 69 69 68 68 68 69 69
47 47 48 49 49 49 48 48 48 49 50 50 49 47 45 44 42 41 39 38 36 35 35 35 34 33 33 31 31 31 32 32 33 33 33 32 32 31 31 31 31 31 30 30 30 30 31 30 30 30 29 29 29 29 30 31 32 33 34 35 37 39 43 45 48 50 53 56 60 63 67 69 71 72 72 72 71 71 70 69 68 68 68 68 68
47 48 49 49 48 47 47 48 49 50 50 49 48 46 44 43 42 40 39 37 36 35 34 34 33 33 31 31 30 31 32 32 32 32 32 31 31 30 30 30 30 30 29 29 29 29 30 29 29 28 28 27 27 27 27 28 29 30 31 32 32 34 36 39 42 45 48 51 54 57 60 64 67 69 70 70 70 70 69 68 67 67 67 67 66
48 49 49 48 47 47 48 49 50 50 49 48 46 45 44 43 41 40 38 37 35 34 34 34 33 32 30 30 30 31 31 31 31 31 30 30 30 29 29 29 29 29 29 29 29 28 28 28 28 27 27 26 26 26 27 27 27 28 29 30 30 31 32 34 36 39 42 45 48 51 54 58 62 65 66 67 67 68 68 67 67 66 65 65 64
48 48 48 47 47 48 49 50 50 49 48 46 46 45 43 42 41 39 38 36 34 33 34 33 32 31 30 30 30 30 30 30 30 30 29 29 29 28 28 28 28 28 28 28 27 27 27 27 27 26 26 25 25 25 25 26 26 26 27 28 29 29 30 31 32 34 37 40 43 45 48 52 56 59 61 63 64 65 65 65 65 65 63 63 62
48 48 47 47 48 49 49 50 49 48 47 46 45 45 43 42 40 39 37 35 33 33 33 32 30 30 30 30 30 30 30 30 29 29 28 28 28 27 27 27 26 26 26 26 26 25 25 26 25 25 25 24 24 24 24 24 25 25 25 26 27 28 29 29 29 31 33 36 39 41 44 47 50 53 56 58 60 61 61 62 63 62 61 60 60
48 47 47 48 49 49 50 49 48 47 46 45 45 44 43 41 40 38 36 34 33 33 32 30 29 30 30 30 30 29 29 29 28 28 27 27 27 27 27 26 26 25 25 25 25 25 24 24 24 24 24 24 23 23 23 23 24 24 24 24 24 25 26 27 27 28 29 32 34 38 41 44 47 49 52 53 55 56 58 58 59 60 59 58 57
47 47 48 48 49 49 49 49 47 46 45 45 44 43 42 41 39 37 35 34 33 32 30 29 30 30 30 29 29 29 29 28 27 27 27 27 27 26 26 26 25 25 25 25 24 24 24 24 24 24 23 23 23 23 23 22 22 22 22 22 22 23 23 24 24 25 26 27 29 32 35 38 42 44 46 48 50 51 53 54 54 56 57 57 56
48 48 48 48 49 49 49 48 47 46 45 44 43 43 41 40 38 36 35 34 33 31 30 30 30 30 29 28 29 29 28 28 27 27 27 26 26 26 26 26 25 25 24 24 24 24 23 23 23 23 23 23 22 22 22 21 20 20 20 20 20 20 21 22 22 22 23 24 25 27 29 32 36 38 41 43 45 47 48 50 50 51 52 53 54
48 48 48 49 49 49 48 47 46 45 44 43 43 42 40 39 37 36 35 34 33 32 32 31 29 28 28 28 28 28 28 27 27 27 27 26 26 26 26 25 25 25 24 24 24 23 23 23 23 23 23 22 21 21 21 20 20 20 20 19 19 18 18 18 19 19 20 21 22 24 26 29 31 34 37 40 42 44 45 46 47 48 49 49 50
49 49 49 49 48 48 48 46 46 45 44 43 42 40 39 38 37 36 35 34 33 33 31 30 28 28 28 28 28 28 27 27 27 27 27 26 26 26 26 26 25 25 24 24 24 23 23 23 23 23 22 21 20 20 21 21 21 21 20 19 18 18 17 17 18 19 19 19 20 22 23 26 28 30 33 36 38 40 42 43 44 45 46 47 48
49 49 49 49 48 48 47 46 45 44 43 42 41 39 38 37 36 35 35 34 34 33 31 29 28 28 28 28 28 28 27 27 27 27 27 27 27 26 26 26 26 25 25 25 24 24 24 23 22 21 21 20 21 21 20 20 21 21 21 20 19 19 19 18 19 19 19 18 19 20 21 23 25 28 30 32 35 37 38 40 41 41 42 43 44
50 50 49 48 48 47 46 45 44 43 42 41 40 39 38 37 36 35 35 34 34 32 30 29 28 28 28 28 28 28 27 27 27 27 27 27 27 27 26 26 26 25 25 25 24 24 24 23 22 21 21 21 21 20 20 19 19 20 21 20 20 19 19 19 19 19 18 18 18 18 20 22 23 25 27 30 32 34 35 37 38 39 39 40 41
Wind_Direction
293 293 293 293 292 291 290 289 289 288 288 287 287 287 286 285 284 284 283 283 282 280 279 275 270 267 265 264 262 260 259 258 259 259 259 258 256 254 251 250 249 248 248 248 248 247 245 244 243 242 242 243 243 243 243 243 242 242 242 242 241 240 240 239 239 239 239 240 241 242 243 243 242 242 242 241 241 240 240 239 238 237 237 236 236
294 294 294 293 292 291 290 289 288 288 287 286 286 286 285 284 284 282 281 281 281 280 278 275 270 266 263 262 260 258 257 257 257 258 258 258 257 256 254 252 251 249 249 249 248 248 247 246 244 243 242 242 242 242 242 242 241 240 240 241 240 239 239 238 237 237 238 239 240 241 242 243 243 242 242 241 241 240 239 239 239 238 237 237 236
294 293 293 293 291 291 289 289 288 287 287 286 285 285 285 284 283 282 281 280 279 279 277 275 272 267 263 261 259 257 256 256 255 256 257 257 257 256 255 254 252 251 250 250 249 249 248 246 245 243 241 241 241 241 241 241 240 240 240 240 240 239 239 238 237 237 237 238 239 241 241 242 242 243 242 242 241 241 240 239 239 238 238 237 236
293 292 292 291 290 290 289 288 287 286 286 285 285 284 284 283 282 281 280 279 278 277 276 275 273 271 266 263 260 257 256 256 255 256 255 256 257 255 254 254 253 251 251 251 250 248 248 247 246 244 242 240 240 241 241 241 241 240 240 240 239 239 240 239 238 237 237 237 239 241 242 241 242 243 242 241 241 241 241 240 239 238 238 237 237
293 292 292 291 290 289 288 287 287 286 285 285 284 283 283 282 282 280 279 278 277 276 276 275 273 272 269 266 263 260 258 258 257 258 257 256 257 256 255 254 253 252 252 252 251 249 248 248 247 245 244 242 241 241 241 241 241 241 240 239 238 239 240 240 239 239 239 239 239 241 242 242 243 243 241 241 241 240 240 240 240 239 238 238 237
295 293 292 292 291 290 289 288 288 287 286 285 284 283 282 282 281 280 278 277 276 275 275 274 272 272 270 268 266 263 261 259 257 258 257 254 254 255 256 255 253 251 251 251 252 251 250 250 249 247 245 244 243 242 241 242 241 241 240 240 239 240 240 240 239 240 241 241 241 242 243 244 244 242 241 242 242 241 241 240 240 240 239 239 238
297 295 293 292 291 290 290 290 289 288 287 286 284 283 282 281 280 279 278 276 275 274 273 273 272 271 271 268 266 264 261 259 257 256 256 254 252 252 254 255 253 251 250 251 252 251 250 251 251 249 246 245 244 242 243 243 241 240 240 239 240 240 239 239 240 240 241 241 242 243 244 245 244 242 242 242 242 242 241 241 241 240 240 240 239
298 296 295 294 292 291 291 290 290 288 288 287 286 285 283 281 280 278 277 275 273 273 272 271 271 270 270 269 267 265 263 261 258 257 257 255 254 252 252 253 253 252 250 251 252 252 251 251 252 251 249 247 245 243 243 244 242 241 240 239 239 239 239 240 240 240 240 241 241 241 243 244 244 243 243 243 243 242 241 240 241 240 240 240 240
300 298 296 295 292 292 292 291 290 288 287 287 287 287 285 283 281 279 277 274 273 272 271 270 269 269 268 268 268 266 265 263 261 259 257 257 256 254 253 252 252 252 251 251 253 254 254 252 252 251 249 248 247 245 244 244 243 242 241 240 239 239 239 240 240 240 240 241 241 241 242 243 242 243 244 243 244 244 242 241 240 240 241 241 240
302 299 296 294 292 293 294 293 291 289 287 287 287 287 286 285 283 280 277 275 273 272 271 270 268 267 267 267 267 266 266 265 263 260 258 257 257 256 255 253 253 253 252 253 253 254 254 253 252 251 250 249 248 247 246 245 244 243 243 241 240 240 240 240 241 241 241 241 241 240 241 241 242 243 243 243 243 244 244 244 242 240 241 241 240
304 301 298 295 295 295 295 295 293 291 289 288 288 287 286 285 284 281 278 276 274 272 271 270 269 268 267 266 265 265 265 264 264 262 260 258 257 257 256 255 254 254 254 254 253 253 253 253 252 252 251 250 248 247 247 247 246 245 244 242 241 241 241 241 242 242 242 242 241 241 240 240 241 242 242 242 242 243 244 244 243 242 241 241 240
307 305 302 300 299 298 297 297 295 293 291 290 289 288 286 285 283 281 278 276 275 273 272 271 270 269 268 266 265 264 264 263 262 261 261 259 258 257 257 256 256 256 255 254 253 253 252 252 252 253 253 252 250 248 247 247 247 246 245 244 243 242 242 242 242 242 242 242 241 241 241 241 241 242 242 242 242 242 242 243 243 242 242 242 241
309 307 305 303 302 300 299 298 296 294 293 292 291 289 287 286 284 282 278 276 276 275 273 272 271 270 268 267 266 265 264 263 262 261 260 260 259 258 258 257 257 256 255 254 253 253 253 253 252 253 254 253 252 251 249 248 247 247 246 245 245 244 243 242 242 241 242 242 242 242 241 241 242 242 242 242 242 242 242 242 242 241 242 242 241
312 310 308 306 305 303 301 300 299 297 296 294 293 291 289 288 287 284 280 277 277 276 274 273 272 270 269 267 266 265 264 263 262 261 261 260 260 259 258 258 257 257 256 255 253 253 254 254 253 253 253 253 253 252 251 249 248 247 247 246 245 245 245 244 243 242 242 242 242 242 242 242 242 242 242 242 241 241 241 240 240 241 242 242 241
315 314 311 309 308 307 306 305 303 301 298 296 294 292 291 289 288 285 282 280 279 277 275 274 272 271 269 268 267 266 264 263 262 261 261 261 260 259 259 258 257 257 256 256 255 254 254 255 254 254 253 253 252 252 251 250 249 249 248 247 246 245 245 245 245 244 242 242 242 242 243 242 242 242 242 242 241 241 241 240 240 240 241 242 242
317 316 314 311 310 310 310 309 307 305 301 298 296 294 292 290 289 286 284 283 281 279 277 275 274 272 270 269 268 267 265 263 262 261 261 261 260 260 259 258 258 257 256 256 255 255 255 254 254 253 253 253 252 251 251 250 250 250 249 248 247 247 246 246 245 245 244 243 242 242 243 242 242 242 241 241 241 241 241 241 240 240 240 241 241
318 317 315 313 312 311 311 311 310 307 304 301 298 296 294 292 290 288 286 285 283 282 280 278 276 274 272 270 269 267 266 264 263 262 261 260 259 259 260 259 258 258 257 256 255 255 254 254 253 253 253 253 253 252 251 251 250 250 249 249 249 248 248 247 247 246 245 244 243 242 242 242 242 242 241 241 241 241 241 241 240 240 240 240 241
319 318 316 315 314 312 312 311 310 307 306 304 302 300 297 294 291 289 287 286 284 283 281 279 278 275 273 271 270 268 267 266 265 264 263 261 260 259 259 259 259 258 258 257 256 255 254 254 253 252 253 253 253 253 252 251 251 251 251 250 250 250 249 248 248 247 246 245 244 243 242 242 242 242 241 241 240 240 240 240 240 240 240 241 241
321 319 318 316 315 314 313 312 310 307 306 305 304 303 300 298 295 292 289 287 285 283 281 280 278 276 274 272 270 269 268 267 266 265 264 262 261 261 260 260 259 259 259 258 258 257 255 254 253 253 253 253 253 252 252 252 251 251 252 252 252 251 250 248 247 247 246 246 245 244 242 242 241 241 241 241 240 240 240 240 240 239 239 241 241
322 321 320 319 317 315 314 312 309 307 307 307 305 304 301 299 297 294 292 289 287 284 282 280 278 276 273 272 271 269 268 268 267 266 265 264 263 263 262 261 260 259 259 259 258 258 257 256 254 254 254 254 253 253 252 252 252 251 252 253 253 252 251 250 248 247 246 246 246 245 243 242 242 242 241 241 240 240 239 239 240 240 240 240 240
323 323 322 320 319 317 315 312 309 307 308 308 307 305 303 299 297 295 293 291 290 287 285 282 280 278 275 273 272 271 269 268 268 267 267 266 265 264 263 263 261 260 259 259 258 258 257 257 256 255 254 254 253 253 252 252 252 251 252 253 253 252 252 251 249 248 247 246 246 245 244 243 242 242 242 241 241 240 240 240 240 240 240 240 240
324 323 323 322 320 319 317 313 310 308 308 308 308 307 304 301 298 295 293 291 290 288 287 285 283 281 278 275 273 272 272 271 270 269 268 267 266 266 265 264 263 262 261 260 259 258 257 256 256 256 256 254 253 253 253 252 252 251 251 251 252 252 252 251 250 249 248 247 246 246 245 244 243 243 242 242 242 241 241 240 240 240 240 240 240
324 323 323 322 322 320 318 315 311 310 310 309 309 308 307 304 300 297 294 292 290 289 288 287 285 283 281 279 277 275 274 273 272 271 270 269 268 267 267 266 265 264 264 263 261 260 259 258 257 256 256 256 255 253 253 252 252 251 251 251 251 251 251 251 250 250 249 248 247 246 245 244 244 244 243 242 242 242 241 241 240 240 240 240 240
325 323 323 323 322 321 319 316 314 312 311 311 310 310 309 307 302 298 296 294 292 290 288 287 286 284 282 281 279 277 276 274 273 272 271 270 270 269 268 267 267 266 265 264 263 262 261 260 259 257 256 256 255 255 254 253 252 251 251 251 250 249 249 249 250 250 249 248 247 246 245 244 244 244 243 242 242 242 242 241 240 240 240 240 240
326 324 324 323 323 322 320 318 317 315 313 312 311 311 310 308 304 300 298 296 294 292 289 288 286 285 283 282 280 279 277 275 274 273 272 272 271 270 269 268 268 267 266 265 264 263 262 261 260 259 258 256 255 255 254 253 252 252 251 250 250 249 248 248 248 249 249 249 248 247 245 245 244 244 243 242 241 241 242 241 240 239 239 239 239
326 325 324 324 323 323 321 320 319 318 316 314 312 312 311 309 305 302 300 298 296 294 291 289 287 285 284 283 281 279 278 276 275 275 274 274 273 272 270 269 269 268 267 266 266 264 263 262 261 260 259 257 256 255 254 254 253 252 251 250 249 248 248 248 247 247 248 248 248 247 246 245 244 243 243 242 241 241 241 241 241 240 239 239 239
327 326 325 324 324 323 322 322 321 319 318 315 313 312 311 309 307 304 302 299 297 295 292 290 288 287 286 284 282 280 278 278 277 277 276 275 274 273 272 271 271 270 269 267 266 265 264 263 262 261 259 258 257 256 255 254 253 252 251 250 249 248 248 248 247 247 247 247 247 246 246 245 244 243 242 242 242 241 241 241 241 241 240 240 239
327 326 325 325 324 323 323 323 322 320 319 316 314 312 310 309 308 306 303 300 298 296 293 291 289 288 287 285 284 282 280 280 279 278 278 276 276 275 274 273 272 271 270 269 267 266 265 264 263 262 261 259 257 256 255 254 253 252 251 251 249 249 248 248 248 247 247 247 246 246 245 245 244 243 243 242 242 242 242 241 241 240 240 240 239
326 326 325 325 324 324 324 323 322 321 319 318 315 312 311 310 308 307 304 301 298 296 294 292 290 289 288 286 285 284 283 282 281 281 280 279 278 277 276 275 274 273 272 271 270 268 267 266 265 263 262 260 258 256 255 254 253 252 251 251 250 249 249 248 248 247 247 247 246 246 246 245 245 244 243 243 242 242 242 242 241 240 240 240 240
325 325 325 325 324 324 324 323 323 322 320 318 316 314 312 311 310 308 305 301 299 296 295 294 292 290 288 287 285 284 284 283 283 282 282 281 280 278 277 276 276 275 274 273 272 271 269 267 266 264 263 261 259 257 256 255 254 252 252 251 250 249 248 248 248 247 247 246 246 246 246 246 245 244 243 242 242 242 242 242 241 241 240 240 240
324 324 324 325 325 324 324 323 323 322 321 319 317 315 313 312 311 308 305 302 299 297 296 295 293 291 289 287 286 285 284 284 284 284 283 282 280 279 279 279 278 277 276 275 274 272 271 270 268 266 264 262 260 258 257 256 255 254 252 251 250 249 248 248 248 247 247 246 246 245 245 245 244 243 242 242 241 241 241 241 241 241 240 240 239
324 324 324 325 325 324 323 323 322 322 321 320 318 316 315 313 312 309 305 302 300 298 297 296 294 292 289 287 287 286 286 285 285 284 284 283 282 282 281 281 280 279 278 277 276 275 273 272 270 268 266 264 262 260 259 258 256 255 253 251 250 249 248 247 247 247 247 246 245 244 244 243 243 242 242 241 241 241 241 241 241 241 240 240 239
323 323 324 324 324 324 323 323 322 322 321 320 319 317 316 314 313 310 306 303 301 300 298 296 294 292 290 289 288 287 286 285 285 284 284 284 284 284 284 283 283 282 281 279 278 277 276 274 273 271 269 267 265 263 262 260 258 256 254 252 250 249 248 247 247 246 246 245 244 243 243 242 242 241 241 241 240 240 240 240 240 240 240 240 239
322 322 323 323 323 323 323 322 322 322 321 320 319 318 317 315 313 311 307 304 303 301 298 295 293 292 291 291 289 287 286 285 284 284 285 286 286 286 286 285 284 283 282 281 280 279 278 277 275 273 271 269 268 266 264 262 260 258 256 254 251 250 248 247 247 246 245 244 243 242 242 241 241 240 240 240 240 240 239 239 239 239 239 239 239
322 322 322 322 323 323 323 323 322 322 322 321 320 319 318 316 314 311 308 305 304 302 298 296 294 293 293 291 289 287 285 285 284 285 286 287 288 288 287 286 285 284 283 283 282 281 280 279 278 276 274 272 270 269 267 264 262 260 258 256 253 251 249 247 246 245 244 243 243 242 241 241 240 240 239 240 240 239 239 238 238 238 238 239 239
322 322 322 322 322 322 323 323 323 322 322 321 321 320 319 317 314 311 308 306 304 302 299 297 296 295 294 291 289 286 285 285 286 286 287 288 288 288 288 287 286 285 284 283 283 282 282 281 280 279 277 275 274 272 270 267 264 262 259 257 254 252 250 248 246 245 243 242 242 241 241 240 239 239 238 238 239 239 239 238 238 238 238 238 238
322 322 321 321 322 322 322 322 322 322 322 321 321 321 319 317 315 311 309 307 304 302 300 299 298 296 294 291 288 286 285 286 287 287 288 288 289 289 288 288 287 286 285 284 284 283 283 283 282 281 279 278 276 275 273 270 267 264 261 258 255 253 251 249 247 245 244 243 242 241 240 239 239 238 237 237 238 238 238 238 238 238 238 238 237
322 322 321 321 321 322 322 322 322 322 322 322 322 321 320 318 315 312 310 307 304 302 301 301 299 297 295 292 289 287 286 287 287 287 288 289 289 289 288 288 287 285 284 284 284 284 284 283 283 282 281 280 279 277 275 273 270 266 263 260 257 255 252 250 248 246 245 243 242 240 239 239 238 238 238 238 238 238 238 238 238 238 238 238 238
322 322 321 321 321 322 322 322 322 322 322 323 322 322 320 318 316 314 311 308 305 303 302 301 300 298 295 293 290 288 288 288 288 288 288 289 289 289 288 288 287 285 284 284 285 285 284 284 284 284 283 282 281 279 277 275 272 269 266 262 258 256 253 251 249 247 245 244 242 241 240 239 238 238 238 238 238 237 237 237 237 238 238 238 238
322 322 321 321 321 321 322 322 322 322 323 323 323 322 321 319 317 315 312 309 306 304 303 302 301 298 296 294 291 290 290 289 288 289 289 289 289 288 288 288 287 286 284 284 285 285 285 286 285 285 284 283 282 282 280 277 274 272 269 265 261 258 255 252 250 248 246 244 242 241 239 238 238 237 237 236 236 237 237 237 237 237 237 237 237
321 322 322 322 321 321 321 322 322 323 323 323 323 322 321 319 318 315 312 310 308 305 304 303 301 299 297 295 293 292 291 290 289 289 289 289 289 288 288 288 287 286 285 285 285 286 286 286 286 286 285 284 283 283 282 281 278 275 272 268 264 261 258 254 251 249 247 244 243 241 240 238 237 236 235 235 235 235 235 236 236 236 237 237 237
321 322 322 322 322 321 321 322 323 323 323 323 323 322 321 320 319 316 313 311 309 307 305 304 301 299 297 296 295 294 292 291 290 289 289 289 289 288 288 288 287 286 285 285 285 285 285 286 287 287 286 285 285 285 284 283 281 278 275 271 267 264 261 257 254 251 248 246 244 242 240 237 236 234 234 234 233 233 234 234 235 236 236 236 236
321 322 322 322 321 321 321 322 323 323 323 323 323 322 321 321 319 317 315 312 310 308 307 304 302 300 298 298 297 295 294 293 291 290 288 288 288 288 287 288 288 287 286 285 285 285 286 286 287 287 287 287 287 286 286 285 282 280 277 273 270 266 263 260 257 254 251 248 245 242 239 237 235 234 233 232 232 232 233 233 233 234 235 235 235
321 321 322 322 321 321 322 322 323 323 323 323 323 322 322 321 320 318 316 314 311 309 307 304 302 301 300 299 298 296 295 294 292 290 288 288 288 288 287 287 287 287 286 285 284 285 286 286 287 287 287 287 287 288 288 287 285 282 278 275 272 268 264 261 259 256 253 249 246 242 240 237 235 234 233 232 232 231 231 231 232 232 233 234 234
321 321 321 321 321 321 322 322 323 323 322 323 323 322 322 321 320 319 317 315 313 311 308 305 303 302 301 300 299 297 297 295 293 291 289 288 288 287 287 287 287 287 286 285 284 284 285 286 287 287 286 286 287 288 288 287 286 284 281 278 274 270 266 263 260 257 254 251 247 243 240 238 235 233 233 232 231 230 230 230 230 231 232 232 233
320 320 321 321 321 321 321 322 322 322 322 322 323 322 321 321 320 319 318 316 314 311 309 306 303 302 302 302 300 299 297 296 294 292 290 288 287 287 286 286 286 286 286 285 284 284 284 286 286 286 286 287 288 289 289 288 286 283 282 279 276 272 268 263 260 257 255 252 248 244 240 237 233 231 230 229 228 228 228 228 229 230 230 231 232
320 320 321 321 321 321 321 321 321 321 322 322 322 322 321 320 320 319 318 317 315 312 309 306 304 303 303 303 302 300 298 296 294 293 291 289 287 286 285 285 285 286 286 285 284 283 284 285 285 286 287 288 288 288 288 287 286 283 282 280 278 274 269 264 260 257 255 251 247 243 239 235 231 229 228 228 227 227 227 227 228 228 229 230 231
320 320 321 321 321 321 321 321 321 321 321 321 322 322 321 320 319 319 318 317 315 312 310 307 305 303 304 304 303 302 299 296 295 294 292 290 288 286 285 284 285 285 285 284 284 283 283 283 285 286 287 287 286 285 286 286 285 284 283 282 278 274 270 265 260 258 255 251 246 242 237 233 230 229 228 227 227 227 227 227 227 228 228 229 230
320 320 321 321 320 320 320 320 320 320 320 321 321 322 321 320 319 319 318 317 316 313 311 308 305 304 304 304 304 303 300 297 295 294 292 290 288 286 284 284 283 283 282 282 283 282 282 282 283 285 286 285 284 283 284 284 284 283 284 282 278 274 271 265 261 260 257 251 246 241 236 232 230 229 227 226 226 226 226 226 227 228 229 229 229
320 320 320 320 320 320 320 319 319 320 320 320 321 321 320 320 319 319 318 317 315 314 311 308 306 305 304 304 304 304 302 299 296 294 293 291 289 286 284 283 282 282 281 281 281 281 282 282 283 284 284 283 283 283 283 283 282 281 281 280 277 275 271 266 264 262 258 251 246 242 237 233 230 229 228 227 226 225 225 226 227 228 229 229 229
320 321 321 320 320 320 319 319 319 319 320 320 320 320 320 319 319 319 318 316 315 313 310 308 307 306 305 304 304 304 303 301 298 295 293 291 290 288 285 282 281 281 281 280 280 281 282 283 283 283 282 281 281 282 283 282 281 279 279 279 278 276 272 267 264 260 253 248 245 243 238 234 231 230 228 227 226 225 225 226 227 227 227 228 228